SCP
0 0 0 0 0 0 0 0 0 0 0 0 0 0 0 0 0 0 0 0 0 0 0 0 0 0 0 0 0 0 0 0 0 0 0 0 0 0 0 0 0 0 0 0 0 0 0 0 0 0 0 0 0 0
0 0 0 0 0 0 0 0 0 0 0 0 0 0 0 0 0 0 0 0 0 0 0 0 0 0 0 0 0 0 0 0 0 0 0 0 0 0 0 0 0 0 0 0 0 0 0 0 0 0 0 0 0 0
0 0 0 0 0 0 0 0 0 0 0 0 0 0 0 0 0 0 0 0 0 0 0 0 0 0 0 0 0 0 0 0 0 0 0 0 0 0 0 0 0 0 0 0 0 0 0 -0 -0 -0 -0 -0 -0 -0
0 0 0 0 0 0 0 0 0 0 0 0 0 0 0 0 0 0 0 0 0 0 0 0 0 0 0 0 0 0 0 0 0 0 0 0 0 0 0 0 0 0 0 0 0 0 0 0 0 0 0 0 0 0
0 0 0 0 0 0 0 0 0 0 0 0 0 0 0 0 0 0 0 0 0 0 0 0 0 0 0 0 0 0 0 0 0 0 0 0 0 0 0 0 0 0 0 0 0 0 0 0 0 0 0 0 0 0
0 0 0 0 0 0 0 0 0 0 0 0 -0 0 0 0 0 0 0 0 0 0 0 0 0 0 0 0 0 0 0 0 0 0 0 0 0 0 0 0 0 0 0 0 0 0 0 0 0 0 0 0 0 0
0 -0 -0 -0 -0 -0 -0 -0 0 0 0 0 0 -0 0 0 0 0 0 0 0 0 0 0 0 0 0 0 0 0 0 0 0 0 0 0 0 0 0 0 0 0 0 0 0 0 0 0 0 0 0 0 0 0
-0 -0 -0 -0 -0 -0 -0 0 -0 0 0 0 0 0 0 0 0 0 0 0 0 0 0 0 0 0 0 0 0 0 0 0 0 0 0 0 0 0 0 0 0 0 0 0 0 0 0 0 0 0 0 0 0 0
-0 -0 -0 -0 -0 -0 -0 -0 -0 0 0 0 0 0 0 0 0 0 0 0 0 0 0 0 0 0 0 0 0 0 0 0 0 0 0 0 0 0 0 0 0 0 0 0 0 0 0 0 0 0 0 0 0 0
-0 -0 0 0 -0 -0 0 0 0 0 0 0 0 0 0 0 0 0 0 0 0 0 0 0 0 0 0 0 0 0 0 0 0 0 0 0 0 0 0 0 0 0 0 0 0 0 0 0 0 0 0 0 0 0
-0 -0 0 0 0 0 0 0 0 -0 0 0 0 0 0 0 0 0 0 0 0 0 0 0 0 0 0 0 0 0 0 0 0 0 0 0 0 0 0 0 0 0 0 0 0 0 0 0 0 0 0 0 0 0
0 0 0 0 0 0 0 0 0 0 0 0 0 0 0 0 0 0 0 0 0 0 0 0 0 0 0 0 0 0 0 0 0 0 0 0 0 0 0 0 0 0 0 0 0 0 0 0 0 0 0 0 0 0
-0 -0 0 0 0 0 0 0 0 0 0 0 0 0 0 0 0 0 0 0 0 0 0 0 0 0 0 0 0 0 0 0 0 0 0 0 0 0 0 0 0 0 0 0 0 0 0 0 0 0 0 0 0 0
-0 -0 -0 -0 0 0 0 0 0 0 0 0 0 0 0 0 0 0 0 0 0 0 0 0 0 0 0 0 0 0 0 0 0 0 0 0 0 0 0 0 0 0 0 0 0 0 0 0 0 0 0 0 0 0
-0 -0 -0 -0 0 0 0 0 0 0 0 0 0 0 0 0 0 0 0 0 0 0 0 0 0 0 0 0 0 0 0 0 0 0 0 0 0 0 0 0 0 0 0 0 0 0 0 0 0 0 0 0 0 0
0 0 0 -0 0 0 0 0 0 0 0 0 0 0 0 0 0 0 0 0 0 0 0 0 0 0 0 0 0 0 0 0 0 0 0 0 0 0 0 0 0 0 0 0 0 0 0 0 0 0 0 0 0 0
0 0 0 0 0 0 0 0 0 0 0 0 0 0 0 0 0 0 0 0 0 0 0 0 0 0 0 0 0 0 0 0 0 0 0 0 0 0 0 0 0 0 0 0 0 0 0 0 0 0 0 0 0 0
0 0 0 0 0 0 0 0 0 0 0 0 0 0 0 0 0 0 0 0 0 0 0 0 0 0 0 0 0 0 0 0 0 0 0 0 0 0 0 0 0 0 0 0 0 0 0 0 0 0 0 0 0 0
0 0 0 0 0 0 0 0 0 0 0 0 0 0 0 0 0 0 0 0 0 0 0 0 0 0 0 0 0 0 0 0 0 0 0 0 0 0 0 0 0 0 0 0 0 0 0 0 0 0 0 0 0 0
0 -0 -0 0 0 0 0 0 0 0 0 0 0 0 0 0 0 0 0 0 0 0 0 0 0 0 0 0 0 0 0 0 0 0 0 0 0 0 0 0 0 0 0 0 0 0 0 0 0 0 0 0 0 0
0 0 -0 0 0 0 0 0 0 0 0 0 0 0 0 0 0 0 0 0 0 0 0 0 0 0 0 0 0 0 0 0 0 0 0 0 0 0 0 0 0 0 0 0 0 0 0 0 0 0 0 0 0 0
0 0 0 0 0 0 0 0 0 0 0 0 0 0 0 0 0 0 0 0 0 0 0 0 0 0 0 0 0 0 0 0 0 0 0 0 0 0 0 0 0 0 0 0 0 0 0 0 0 0 0 0 0 0
0 0 0 0 0 0 0 0 0 0 0 0 0 0 0 0 0 0 0 0 0 0 0 0 0 0 0 0 0 0 0 0 0 0 0 0 0 0 0 0 0 0 0 0 0 0 0 0 0 0 0 0 0 0
0 0 0 0 0 0 0 0 0 0 0 0 0 0 0 0 0 0 0 0 0 0 0 0 0 0 0 0 0 0 0 0 0 0 0 0 0 0 0 0 0 0 0 0 0 0 0 0 0 0 0 0 0 0
0 0 0 0 0 0 0 0 0 0 0 0 0 0 0 0 0 0 0 0 0 0 0 0 0 0 0 0 0 0 0 0 0 0 0 0 0 0 0 0 0 0 0 0 0 0 0 0 0 0 0 0 0 0
0 0 0 0 0 0 0 0 0 0 0 0 0 0 0 0 0 0 0 0 0 0 0 0 0 0 0 0 0 0 0 0 0 0 0 0 0 0 0 0 0 0 0 0 0 0 0 0 0 0 0 0 0 0
0 0 0 0 0 0 0 0 0 0 0 0 0 0 0 0 0 0 0 0 0 0 0 0 0 0 0 0 0 0 0 0 0 0 0 0 0 0 0 0 0 0 0 0 0 0 0 0 0 0 0 0 0 0
0 0 0 0 0 0 0 0 0 0 0 0 0 0 0 0 0 0 0 0 0 0 0 0 0 0 0 0 0 0 0 0 0 0 0 0 0 0 0 0 0 0 0 0 0 0 0 0 0 0 0 0 0 0
0 0 0 0 0 0 0 0 0 0 0 0 0 0 0 0 0 0 0 0 0 0 0 0 0 0 0 0 0 0 0 0 0 0 0 0 0 0 0 0 0 0 0 0 0 0 0 0 0 0 0 0 0 0
0 0 0 0 0 0 0 0 0 0 0 0 0 0 0 0 0 0 0 0 0 0 0 0 0 0 0 0 0 0 0 0 0 0 0 0 0 0 0 0 0 0 0 0 0 0 0 0 0 0 0 0 0 0
0 0 0 0 0 0 0 0 0 0 0 0 0 0 0 0 0 0 -0 -0 -0 0 0 0 0 0 0 0 0 0 0 0 0 0 0 0 0 0 0 0 0 0 0 0 0 0 0 0 0 0 0 0 0 0
0 0 0 0 0 0 0 0 0 0 0 0 0 0 0 0 0 -0 0 0 0 0 0 0 0 0 0 0 0 0 0 0 0 0 0 0 0 0 0 0 0 0 0 0 0 0 0 0 0 0 0 0 0 0
0 0 0 0 0 0 0 0 0 0 0 0 0 0 0 0 0 0 0 0 0 0 0 0 0 0 0 0 0 0 0 0 0 0 0 0 0 0 0 0 0 0 0 0 0 0 -0 0 0 0 0 0 0 0
Wind_Speed_500mb
61 65 66 66 65 67 68 69 65 75 73 70 88 74 89 92 94 92 85 89 83 38 43 54 42 44 36 41 17 15 11 6 11 19 14 15 15 19 23 28 11 18 13 16 15 18 30 8 6 4 7 47 48 44
65 64 67 68 66 65 68 70 73 72 77 75 81 82 78 92 96 93 65 76 93 56 19 57 44 52 48 43 42 32 7 11 21 12 12 9 12 9 22 23 26 25 28 20 17 9 9 26 18 39 36 37 35 37
62 63 65 64 61 66 70 69 73 80 80 79 80 90 83 99 93 92 84 63 85 56 34 34 48 60 61 51 37 26 26 22 13 10 2 3 12 3 17 26 31 28 33 26 29 36 43 64 51 42 32 29 24 27
60 59 55 57 60 60 63 72 74 83 89 87 83 93 88 98 92 96 93 74 91 34 16 20 47 44 66 70 68 50 35 23 20 20 13 10 13 17 12 16 20 21 14 23 25 34 43 53 51 42 27 33 30 37
61 60 61 64 63 65 68 77 82 81 87 91 84 89 70 98 96 96 92 83 104 70 13 18 37 48 55 61 57 62 49 45 28 14 11 16 21 22 25 21 24 35 36 26 29 47 41 50 49 45 48 40 42 45
59 59 61 64 67 71 74 73 74 77 77 85 82 74 75 90 96 87 42 100 111 65 16 10 22 35 45 54 57 50 47 38 37 18 17 23 48 16 9 22 53 72 65 57 48 63 55 58 52 50 53 54 58 49
60 60 60 64 71 78 79 72 70 72 75 80 80 69 74 85 97 88 22 35 114 89 21 9 10 20 40 32 28 27 29 24 26 21 22 37 40 35 22 34 68 54 46 47 55 52 41 65 46 51 53 53 48 49
51 52 59 70 71 65 60 66 70 70 71 71 69 71 74 74 81 68 40 46 102 60 19 9 7 12 33 17 16 24 19 24 19 15 21 21 25 24 18 43 49 55 67 62 64 61 62 72 65 64 60 54 52 58
41 46 53 45 34 33 47 61 70 85 76 78 72 54 74 66 39 64 45 89 79 30 17 11 15 11 28 16 14 17 17 9 15 12 17 15 15 13 11 15 28 25 24 39 46 40 42 53 59 56 54 55 56 62
39 41 36 31 30 31 18 15 45 54 76 71 62 44 16 37 67 64 53 35 24 16 13 6 19 10 29 24 17 18 14 7 7 13 14 15 27 54 5 13 24 33 35 37 37 28 30 34 36 41 43 43 45 48
45 42 25 19 20 11 4 28 40 50 51 38 14 14 56 87 53 15 11 10 10 8 16 12 18 15 21 12 9 17 9 8 7 7 9 7 13 3 13 17 22 29 31 33 36 38 39 43 46 48 46 41 41 41
35 30 15 16 11 11 10 13 35 49 41 25 34 56 32 13 12 9 7 8 6 8 9 15 19 21 16 15 6 11 8 8 12 8 7 7 3 4 14 20 24 28 31 32 35 38 39 41 42 43 43 40 38 35
41 41 36 30 25 20 16 20 22 42 70 63 25 10 9 5 7 9 9 8 9 10 19 19 13 13 10 8 8 7 11 11 6 9 8 6 4 12 23 26 24 24 25 28 30 30 31 32 33 33 34 35 37 32
31 35 34 31 25 15 23 23 31 43 21 14 7 8 5 7 5 4 9 12 12 16 35 37 16 7 9 7 6 10 8 4 7 8 14 4 8 19 23 24 27 27 25 24 23 24 25 25 25 25 24 25 25 22
37 39 40 35 24 16 17 17 19 21 13 11 8 8 7 6 13 9 14 18 17 32 27 19 13 10 6 8 7 6 8 10 10 7 3 6 14 20 24 26 27 26 25 23 23 21 20 19 19 19 17 16 15 15
25 28 35 19 24 19 9 10 11 14 12 12 18 8 6 9 6 10 17 13 23 32 20 13 8 7 6 6 13 14 9 11 5 4 3 12 17 21 24 25 24 24 23 21 19 18 15 13 11 9 4 5 10 17
13 22 20 20 21 17 8 22 15 17 14 12 9 17 15 18 14 6 6 7 27 14 6 6 10 8 6 6 7 5 6 5 5 1 7 13 17 20 20 20 20 18 16 14 11 8 6 1 4 9 12 17 19 22
13 1 4 7 11 14 22 15 12 13 15 16 7 10 10 12 10 9 11 15 10 6 4 4 7 8 9 11 6 5 6 5 3 2 7 12 12 12 13 13 13 11 9 7 4 6 8 12 15 21 26 28 31 31
2 2 8 10 7 5 9 12 11 10 11 11 12 12 12 15 21 16 16 17 19 16 11 4 4 5 3 4 5 10 10 7 4 0 5 8 6 5 6 6 6 5 6 6 8 11 12 17 22 24 27 27 32 32
10 7 4 9 5 8 11 12 11 14 6 6 10 9 9 8 6 18 26 21 15 9 9 6 4 4 5 4 8 14 12 7 7 3 1 4 3 2 2 3 4 8 11 13 18 21 19 22 23 24 25 27 28 29
3 1 8 7 11 20 15 9 14 11 10 11 7 9 8 8 15 19 16 13 10 9 4 5 3 4 7 8 8 8 7 9 8 4 3 4 4 4 5 7 8 10 12 14 17 20 19 23 23 23 21 20 19 18
6 10 11 13 13 13 17 18 12 10 9 9 7 8 10 7 10 10 11 13 8 5 4 4 3 4 6 8 8 8 9 10 7 7 8 8 9 10 10 11 12 13 15 17 17 18 18 20 19 17 16 14 12 10
12 10 13 13 12 14 7 11 8 9 6 4 5 6 6 5 5 8 7 6 4 3 4 5 5 7 8 9 9 9 10 9 8 9 11 12 12 13 13 14 16 16 16 17 17 16 15 14 12 10 7 4 2 0
14 13 18 16 21 6 6 11 9 8 7 6 5 5 4 5 5 5 3 1 1 1 4 5 7 6 7 8 8 8 10 11 12 13 14 14 15 17 16 16 15 14 13 14 13 12 9 6 4 3 4 5 8 10
10 23 17 14 20 9 10 7 8 6 6 4 4 3 2 4 1 1 2 2 0 1 3 6 9 9 7 6 7 9 12 14 14 15 17 17 16 18 17 16 15 14 13 10 9 7 6 7 7 9 12 14 15 19
17 20 13 13 10 9 6 6 7 5 4 4 4 2 1 1 3 1 1 0 2 3 5 6 8 8 9 9 10 12 14 16 16 15 18 19 18 16 15 14 12 10 9 8 8 9 11 13 15 16 17 20 24 29
11 10 12 16 6 4 8 7 5 5 6 5 4 4 1 0 3 2 1 2 3 4 6 7 7 7 8 10 12 13 15 17 16 14 16 16 15 15 14 12 13 10 10 12 14 16 17 18 20 23 26 27 30 35
10 13 8 14 12 13 5 5 5 4 3 5 3 0 3 2 2 3 6 5 6 7 7 7 8 10 11 12 14 15 16 16 14 15 14 13 13 13 13 14 13 15 17 17 18 21 23 26 28 31 33 34 32 34
11 9 6 8 8 10 9 3 1 2 3 1 1 1 3 6 6 6 9 10 11 12 12 13 14 14 14 14 14 14 14 14 14 13 12 12 13 15 15 16 18 18 19 22 26 27 29 30 32 35 36 37 36 37
8 9 5 5 6 6 4 4 3 2 3 3 4 4 6 6 3 9 11 13 13 13 14 14 15 15 15 15 14 14 13 15 16 16 16 15 16 16 17 18 20 23 25 26 27 29 32 36 36 39 43 44 44 45
4 2 5 6 4 1 5 4 3 2 0 1 2 3 5 4 3 8 12 14 16 16 16 15 15 15 15 15 15 14 14 15 17 19 20 19 19 20 21 22 24 25 28 31 33 35 37 39 41 44 45 46 46 50
6 6 4 4 1 1 5 4 3 3 3 3 3 4 5 5 5 7 11 19 19 18 16 16 15 13 15 16 16 15 16 17 17 17 18 19 20 22 23 25 28 32 34 36 38 40 42 46 49 50 54 55 56 58
4 5 5 3 1 1 6 8 4 4 3 3 3 4 4 5 8 7 10 16 16 16 17 17 17 18 17 17 17 17 18 19 19 19 20 21 23 25 28 30 33 36 39 42 44 47 50 52 56 58 61 64 67 69
Wind_Direction_500mb
273 274 270 267 261 260 258 257 254 248 245 249 238 228 228 223 220 215 215 217 210 220 231 219 221 224 218 214 210 149 135 178 188 212 221 219 236 226 228 241 241 238 237 232 234 249 258 152 23 247 313 305 292 283
272 272 269 261 262 261 260 255 255 252 245 246 246 246 219 222 223 215 215 215 214 210 228 219 220 221 219 216 210 183 194 141 191 204 205 216 224 223 228 246 227 240 232 249 230 245 232 294 267 290 281 268 274 268
270 273 271 263 262 264 258 257 256 252 246 243 249 244 235 218 220 219 212 211 192 200 206 206 210 214 211 210 203 203 226 225 220 241 266 265 255 326 236 234 250 244 250 251 263 266 277 292 303 289 265 264 273 277
270 270 264 257 264 264 261 257 258 251 245 239 245 237 224 217 217 216 211 212 195 186 207 201 206 205 217 221 221 221 232 225 237 236 237 249 244 211 257 275 282 270 284 251 258 268 277 275 273 262 272 267 269 282
265 268 265 266 268 269 268 271 258 246 237 233 240 235 234 210 213 212 214 213 199 190 162 158 194 210 217 216 222 223 225 229 214 215 226 244 248 253 252 263 256 250 250 251 256 267 273 276 280 274 275 273 278 283
263 268 268 267 270 267 272 268 248 240 234 224 225 237 223 200 206 203 203 210 195 192 164 152 187 189 201 204 210 214 221 219 226 222 235 249 243 260 256 245 251 252 251 249 256 260 271 274 275 266 273 274 284 276
263 269 271 270 270 270 266 261 244 234 225 217 218 230 224 199 200 197 202 186 187 194 158 133 154 174 182 166 175 188 194 202 214 228 234 247 258 253 251 252 254 258 263 250 257 262 272 270 264 273 273 282 272 275
268 271 272 276 277 270 256 247 234 219 216 207 215 215 214 196 202 199 207 184 177 176 164 154 113 144 170 158 164 182 189 205 214 229 246 240 254 234 250 252 262 257 252 255 256 266 260 274 278 274 275 270 267 277
276 278 279 277 271 258 263 265 236 215 203 198 204 207 181 194 201 167 148 170 174 173 148 158 149 162 165 161 151 165 186 202 214 221 231 226 233 239 247 294 304 283 264 267 267 276 279 273 276 277 278 279 277 279
285 279 280 270 251 269 277 181 157 170 183 191 186 185 149 190 189 143 146 159 158 167 134 146 139 135 165 163 170 154 170 209 225 221 220 224 243 251 327 283 284 288 287 290 301 294 285 288 291 292 289 282 277 278
291 269 244 245 238 220 231 155 171 169 160 172 114 141 142 141 137 131 140 151 121 137 144 136 175 135 172 159 151 192 173 185 226 205 214 230 243 211 274 281 278 281 284 287 285 286 286 286 290 289 289 287 284 282
61 129 123 138 138 143 156 150 137 140 157 140 131 129 129 87 88 127 121 107 126 131 144 154 133 133 152 157 145 169 191 188 231 137 208 239 122 359 328 319 310 299 292 288 286 286 284 283 283 282 281 277 274 273
60 70 77 87 95 111 140 146 129 114 119 123 120 63 77 37 124 141 127 103 129 174 162 148 116 123 129 146 120 147 190 218 112 202 228 250 78 326 330 324 316 316 308 297 287 285 284 282 278 275 270 269 264 261
75 69 70 72 75 80 121 154 128 139 98 51 62 85 65 97 101 108 140 134 125 135 135 132 113 117 113 155 132 189 181 163 231 229 242 93 6 331 333 329 326 324 319 315 308 298 289 285 279 272 268 264 263 254
76 73 63 58 64 83 118 101 149 113 62 61 17 74 69 90 46 68 90 105 106 130 122 100 91 111 132 149 189 156 184 219 215 244 47 42 334 334 333 331 330 327 326 322 316 308 301 291 282 277 267 262 250 234
60 89 56 37 53 71 89 8 148 57 61 50 42 95 88 103 63 43 62 82 113 132 121 95 112 148 163 191 189 204 195 204 162 87 12 325 326 328 327 330 333 333 332 326 322 319 315 307 293 285 265 210 196 179
358 50 26 60 59 56 80 83 52 44 53 47 48 47 40 48 73 98 104 121 143 130 138 149 152 161 102 178 224 219 207 95 102 39 315 318 328 330 332 336 338 339 338 334 333 333 336 41 125 127 130 130 136 140
97 75 12 102 99 87 76 56 70 70 63 39 39 18 49 62 102 80 89 115 126 87 39 104 130 167 180 181 191 122 116 117 95 6 324 325 328 336 339 344 349 354 360 2 32 89 104 120 129 120 123 125 129 129
72 1 158 157 140 71 66 48 47 90 76 95 96 66 67 71 64 83 90 88 92 98 102 57 113 183 168 91 113 135 137 142 135 348 313 335 344 4 14 23 29 40 69 96 116 122 139 139 131 128 128 131 125 123
348 18 140 167 135 87 78 42 50 81 85 89 69 65 74 75 82 59 65 73 81 63 49 37 51 68 49 92 130 145 151 148 135 121 309 315 309 8 50 78 100 112 116 131 132 129 129 128 126 127 128 126 125 122
329 135 160 139 66 64 81 59 58 69 91 75 54 50 55 33 37 39 31 43 57 44 81 52 81 145 143 156 161 161 166 166 157 183 269 253 216 168 150 139 138 139 144 143 139 136 139 132 126 125 126 126 122 119
120 131 109 85 71 66 69 49 79 89 81 95 61 53 44 36 29 17 11 38 60 66 99 118 145 142 144 166 170 159 160 168 190 244 230 203 179 166 163 158 154 156 153 148 144 140 138 132 130 129 130 128 123 117
117 101 68 57 85 55 37 48 67 37 74 66 66 68 46 49 16 9 66 48 75 78 138 149 168 173 179 181 181 182 181 187 193 190 189 184 176 172 170 167 161 162 159 156 151 146 145 146 142 140 140 138 148 332
102 57 35 40 39 69 52 35 47 60 63 50 57 70 36 26 10 40 93 69 231 149 165 174 175 184 189 193 197 195 192 191 182 181 181 178 175 169 166 166 164 162 164 156 151 148 156 165 171 205 252 280 294 301
88 15 22 15 24 38 42 33 11 57 77 42 94 100 52 353 7 346 314 54 231 174 183 180 188 200 211 208 193 182 174 173 174 180 178 173 174 169 166 165 164 166 167 172 178 189 219 242 261 276 280 285 296 297
68 15 35 12 18 40 11 60 34 41 40 82 56 338 325 203 226 248 69 290 201 182 178 181 191 194 197 199 188 177 174 173 169 180 178 173 171 174 175 178 180 193 201 215 231 251 267 272 276 283 292 297 298 299
61 15 28 32 37 57 72 56 45 47 58 49 2 359 359 186 275 80 229 189 181 178 179 178 179 181 189 181 174 169 168 170 172 175 177 177 180 185 192 206 218 233 245 259 265 269 274 282 289 294 297 299 301 300
71 35 52 2 50 40 91 48 36 49 30 352 290 29 147 225 289 238 202 187 169 163 164 163 163 161 160 161 164 162 163 169 175 177 183 193 203 211 220 232 247 260 264 269 278 284 289 292 295 295 296 297 299 298
47 20 37 36 49 46 45 52 341 294 299 329 314 275 266 257 262 217 189 178 169 165 164 162 161 161 164 164 168 175 181 182 185 196 213 227 237 245 252 257 266 271 275 282 287 289 291 294 295 297 301 303 302 300
23 24 76 59 69 15 359 352 348 312 232 247 275 298 302 295 250 191 191 189 185 181 179 179 179 180 182 189 197 207 215 222 228 236 244 251 259 263 262 273 279 280 281 284 290 293 295 297 297 296 297 299 300 301
7 58 81 52 94 10 349 10 61 82 231 281 239 260 292 307 261 218 204 197 197 196 193 194 200 207 212 217 225 230 238 243 245 248 253 258 263 267 271 275 281 289 294 295 294 295 294 293 294 295 296 297 298 299
38 49 89 100 183 257 333 336 266 242 256 258 262 292 296 300 274 223 219 209 208 207 203 211 219 229 235 238 238 241 245 250 253 258 263 266 270 276 284 289 291 292 292 292 294 295 296 297 298 298 298 299 301 303
68 50 61 97 103 258 338 359 5 313 273 277 279 291 272 258 249 240 220 213 210 215 225 230 236 241 241 244 247 252 256 261 266 270 274 277 280 281 284 287 289 291 293 295 296 296 296 296 296 298 301 303 305 306
Wind_Speed_850mb
61 65 66 66 65 67 68 69 65 75 73 70 88 74 89 92 94 92 85 89 83 38 43 54 42 44 36 41 17 15 11 6 11 19 14 15 15 19 23 28 11 18 13 16 15 18 30 8 6 4 7 47 48 44
65 64 67 68 66 65 68 70 73 72 77 75 81 82 78 92 96 93 65 76 93 56 19 57 44 52 48 43 42 32 7 11 21 12 12 9 12 9 22 23 26 25 28 20 17 9 9 26 18 39 36 37 35 37
62 63 65 64 61 66 70 69 73 80 80 79 80 90 83 99 93 92 84 63 85 56 34 34 48 60 61 51 37 26 26 22 13 10 2 3 12 3 17 26 31 28 33 26 29 36 43 64 51 42 32 29 24 27
60 59 55 57 60 60 63 72 74 83 89 87 83 93 88 98 92 96 93 74 91 34 16 20 47 44 66 70 68 50 35 23 20 20 13 10 13 17 12 16 20 21 14 23 25 34 43 53 51 42 27 33 30 37
61 60 61 64 63 65 68 77 82 81 87 91 84 89 70 98 96 96 92 83 104 70 13 18 37 48 55 61 57 62 49 45 28 14 11 16 21 22 25 21 24 35 36 26 29 47 41 50 49 45 48 40 42 45
59 59 61 64 67 71 74 73 74 77 77 85 82 74 75 90 96 87 42 100 111 65 16 10 22 35 45 54 57 50 47 38 37 18 17 23 48 16 9 22 53 72 65 57 48 63 55 58 52 50 53 54 58 49
60 60 60 64 71 78 79 72 70 72 75 80 80 69 74 85 97 88 22 35 114 89 21 9 10 20 40 32 28 27 29 24 26 21 22 37 40 35 22 34 68 54 46 47 55 52 41 65 46 51 53 53 48 49
51 52 59 70 71 65 60 66 70 70 71 71 69 71 74 74 81 68 40 46 102 60 19 9 7 12 33 17 16 24 19 24 19 15 21 21 25 24 18 43 49 55 67 62 64 61 62 72 65 64 60 54 52 58
41 46 53 45 34 33 47 61 70 85 76 78 72 54 74 66 39 64 45 89 79 30 17 11 15 11 28 16 14 17 17 9 15 12 17 15 15 13 11 15 28 25 24 39 46 40 42 53 59 56 54 55 56 62
39 41 36 31 30 31 18 15 45 54 76 71 62 44 16 37 67 64 53 35 24 16 13 6 19 10 29 24 17 18 14 7 7 13 14 15 27 54 5 13 24 33 35 37 37 28 30 34 36 41 43 43 45 48
45 42 25 19 20 11 4 28 40 50 51 38 14 14 56 87 53 15 11 10 10 8 16 12 18 15 21 12 9 17 9 8 7 7 9 7 13 3 13 17 22 29 31 33 36 38 39 43 46 48 46 41 41 41
35 30 15 16 11 11 10 13 35 49 41 25 34 56 32 13 12 9 7 8 6 8 9 15 19 21 16 15 6 11 8 8 12 8 7 7 3 4 14 20 24 28 31 32 35 38 39 41 42 43 43 40 38 35
41 41 36 30 25 20 16 20 22 42 70 63 25 10 9 5 7 9 9 8 9 10 19 19 13 13 10 8 8 7 11 11 6 9 8 6 4 12 23 26 24 24 25 28 30 30 31 32 33 33 34 35 37 32
31 35 34 31 25 15 23 23 31 43 21 14 7 8 5 7 5 4 9 12 12 16 35 37 16 7 9 7 6 10 8 4 7 8 14 4 8 19 23 24 27 27 25 24 23 24 25 25 25 25 24 25 25 22
37 39 40 35 24 16 17 17 19 21 13 11 8 8 7 6 13 9 14 18 17 32 27 19 13 10 6 8 7 6 8 10 10 7 3 6 14 20 24 26 27 26 25 23 23 21 20 19 19 19 17 16 15 15
25 28 35 19 24 19 9 10 11 14 12 12 18 8 6 9 6 10 17 13 23 32 20 13 8 7 6 6 13 14 9 11 5 4 3 12 17 21 24 25 24 24 23 21 19 18 15 13 11 9 4 5 10 17
13 22 20 20 21 17 8 22 15 17 14 12 9 17 15 18 14 6 6 7 27 14 6 6 10 8 6 6 7 5 6 5 5 1 7 13 17 20 20 20 20 18 16 14 11 8 6 1 4 9 12 17 19 22
13 1 4 7 11 14 22 15 12 13 15 16 7 10 10 12 10 9 11 15 10 6 4 4 7 8 9 11 6 5 6 5 3 2 7 12 12 12 13 13 13 11 9 7 4 6 8 12 15 21 26 28 31 31
2 2 8 10 7 5 9 12 11 10 11 11 12 12 12 15 21 16 16 17 19 16 11 4 4 5 3 4 5 10 10 7 4 0 5 8 6 5 6 6 6 5 6 6 8 11 12 17 22 24 27 27 32 32
10 7 4 9 5 8 11 12 11 14 6 6 10 9 9 8 6 18 26 21 15 9 9 6 4 4 5 4 8 14 12 7 7 3 1 4 3 2 2 3 4 8 11 13 18 21 19 22 23 24 25 27 28 29
3 1 8 7 11 20 15 9 14 11 10 11 7 9 8 8 15 19 16 13 10 9 4 5 3 4 7 8 8 8 7 9 8 4 3 4 4 4 5 7 8 10 12 14 17 20 19 23 23 23 21 20 19 18
6 10 11 13 13 13 17 18 12 10 9 9 7 8 10 7 10 10 11 13 8 5 4 4 3 4 6 8 8 8 9 10 7 7 8 8 9 10 10 11 12 13 15 17 17 18 18 20 19 17 16 14 12 10
12 10 13 13 12 14 7 11 8 9 6 4 5 6 6 5 5 8 7 6 4 3 4 5 5 7 8 9 9 9 10 9 8 9 11 12 12 13 13 14 16 16 16 17 17 16 15 14 12 10 7 4 2 0
14 13 18 16 21 6 6 11 9 8 7 6 5 5 4 5 5 5 3 1 1 1 4 5 7 6 7 8 8 8 10 11 12 13 14 14 15 17 16 16 15 14 13 14 13 12 9 6 4 3 4 5 8 10
10 23 17 14 20 9 10 7 8 6 6 4 4 3 2 4 1 1 2 2 0 1 3 6 9 9 7 6 7 9 12 14 14 15 17 17 16 18 17 16 15 14 13 10 9 7 6 7 7 9 12 14 15 19
17 20 13 13 10 9 6 6 7 5 4 4 4 2 1 1 3 1 1 0 2 3 5 6 8 8 9 9 10 12 14 16 16 15 18 19 18 16 15 14 12 10 9 8 8 9 11 13 15 16 17 20 24 29
11 10 12 16 6 4 8 7 5 5 6 5 4 4 1 0 3 2 1 2 3 4 6 7 7 7 8 10 12 13 15 17 16 14 16 16 15 15 14 12 13 10 10 12 14 16 17 18 20 23 26 27 30 35
10 13 8 14 12 13 5 5 5 4 3 5 3 0 3 2 2 3 6 5 6 7 7 7 8 10 11 12 14 15 16 16 14 15 14 13 13 13 13 14 13 15 17 17 18 21 23 26 28 31 33 34 32 34
11 9 6 8 8 10 9 3 1 2 3 1 1 1 3 6 6 6 9 10 11 12 12 13 14 14 14 14 14 14 14 14 14 13 12 12 13 15 15 16 18 18 19 22 26 27 29 30 32 35 36 37 36 37
8 9 5 5 6 6 4 4 3 2 3 3 4 4 6 6 3 9 11 13 13 13 14 14 15 15 15 15 14 14 13 15 16 16 16 15 16 16 17 18 20 23 25 26 27 29 32 36 36 39 43 44 44 45
4 2 5 6 4 1 5 4 3 2 0 1 2 3 5 4 3 8 12 14 16 16 16 15 15 15 15 15 15 14 14 15 17 19 20 19 19 20 21 22 24 25 28 31 33 35 37 39 41 44 45 46 46 50
6 6 4 4 1 1 5 4 3 3 3 3 3 4 5 5 5 7 11 19 19 18 16 16 15 13 15 16 16 15 16 17 17 17 18 19 20 22 23 25 28 32 34 36 38 40 42 46 49 50 54 55 56 58
4 5 5 3 1 1 6 8 4 4 3 3 3 4 4 5 8 7 10 16 16 16 17 17 17 18 17 17 17 17 18 19 19 19 20 21 23 25 28 30 33 36 39 42 44 47 50 52 56 58 61 64 67 69
Wind_Direction_850mb
273 274 270 267 261 260 258 257 254 248 245 249 238 228 228 223 220 215 215 217 210 220 231 219 221 224 218 214 210 149 135 178 188 212 221 219 236 226 228 241 241 238 237 232 234 249 258 152 23 247 313 305 292 283
272 272 269 261 262 261 260 255 255 252 245 246 246 246 219 222 223 215 215 215 214 210 228 219 220 221 219 216 210 183 194 141 191 204 205 216 224 223 228 246 227 240 232 249 230 245 232 294 267 290 281 268 274 268
270 273 271 263 262 264 258 257 256 252 246 243 249 244 235 218 220 219 212 211 192 200 206 206 210 214 211 210 203 203 226 225 220 241 266 265 255 326 236 234 250 244 250 251 263 266 277 292 303 289 265 264 273 277
270 270 264 257 264 264 261 257 258 251 245 239 245 237 224 217 217 216 211 212 195 186 207 201 206 205 217 221 221 221 232 225 237 236 237 249 244 211 257 275 282 270 284 251 258 268 277 275 273 262 272 267 269 282
265 268 265 266 268 269 268 271 258 246 237 233 240 235 234 210 213 212 214 213 199 190 162 158 194 210 217 216 222 223 225 229 214 215 226 244 248 253 252 263 256 250 250 251 256 267 273 276 280 274 275 273 278 283
263 268 268 267 270 267 272 268 248 240 234 224 225 237 223 200 206 203 203 210 195 192 164 152 187 189 201 204 210 214 221 219 226 222 235 249 243 260 256 245 251 252 251 249 256 260 271 274 275 266 273 274 284 276
263 269 271 270 270 270 266 261 244 234 225 217 218 230 224 199 200 197 202 186 187 194 158 133 154 174 182 166 175 188 194 202 214 228 234 247 258 253 251 252 254 258 263 250 257 262 272 270 264 273 273 282 272 275
268 271 272 276 277 270 256 247 234 219 216 207 215 215 214 196 202 199 207 184 177 176 164 154 113 144 170 158 164 182 189 205 214 229 246 240 254 234 250 252 262 257 252 255 256 266 260 274 278 274 275 270 267 277
276 278 279 277 271 258 263 265 236 215 203 198 204 207 181 194 201 167 148 170 174 173 148 158 149 162 165 161 151 165 186 202 214 221 231 226 233 239 247 294 304 283 264 267 267 276 279 273 276 277 278 279 277 279
285 279 280 270 251 269 277 181 157 170 183 191 186 185 149 190 189 143 146 159 158 167 134 146 139 135 165 163 170 154 170 209 225 221 220 224 243 251 327 283 284 288 287 290 301 294 285 288 291 292 289 282 277 278
291 269 244 245 238 220 231 155 171 169 160 172 114 141 142 141 137 131 140 151 121 137 144 136 175 135 172 159 151 192 173 185 226 205 214 230 243 211 274 281 278 281 284 287 285 286 286 286 290 289 289 287 284 282
61 129 123 138 138 143 156 150 137 140 157 140 131 129 129 87 88 127 121 107 126 131 144 154 133 133 152 157 145 169 191 188 231 137 208 239 122 359 328 319 310 299 292 288 286 286 284 283 283 282 281 277 274 273
60 70 77 87 95 111 140 146 129 114 119 123 120 63 77 37 124 141 127 103 129 174 162 148 116 123 129 146 120 147 190 218 112 202 228 250 78 326 330 324 316 316 308 297 287 285 284 282 278 275 270 269 264 261
75 69 70 72 75 80 121 154 128 139 98 51 62 85 65 97 101 108 140 134 125 135 135 132 113 117 113 155 132 189 181 163 231 229 242 93 6 331 333 329 326 324 319 315 308 298 289 285 279 272 268 264 263 254
76 73 63 58 64 83 118 101 149 113 62 61 17 74 69 90 46 68 90 105 106 130 122 100 91 111 132 149 189 156 184 219 215 244 47 42 334 334 333 331 330 327 326 322 316 308 301 291 282 277 267 262 250 234
60 89 56 37 53 71 89 8 148 57 61 50 42 95 88 103 63 43 62 82 113 132 121 95 112 148 163 191 189 204 195 204 162 87 12 325 326 328 327 330 333 333 332 326 322 319 315 307 293 285 265 210 196 179
358 50 26 60 59 56 80 83 52 44 53 47 48 47 40 48 73 98 104 121 143 130 138 149 152 161 102 178 224 219 207 95 102 39 315 318 328 330 332 336 338 339 338 334 333 333 336 41 125 127 130 130 136 140
97 75 12 102 99 87 76 56 70 70 63 39 39 18 49 62 102 80 89 115 126 87 39 104 130 167 180 181 191 122 116 117 95 6 324 325 328 336 339 344 349 354 360 2 32 89 104 120 129 120 123 125 129 129
72 1 158 157 140 71 66 48 47 90 76 95 96 66 67 71 64 83 90 88 92 98 102 57 113 183 168 91 113 135 137 142 135 348 313 335 344 4 14 23 29 40 69 96 116 122 139 139 131 128 128 131 125 123
348 18 140 167 135 87 78 42 50 81 85 89 69 65 74 75 82 59 65 73 81 63 49 37 51 68 49 92 130 145 151 148 135 121 309 315 309 8 50 78 100 112 116 131 132 129 129 128 126 127 128 126 125 122
329 135 160 139 66 64 81 59 58 69 91 75 54 50 55 33 37 39 31 43 57 44 81 52 81 145 143 156 161 161 166 166 157 183 269 253 216 168 150 139 138 139 144 143 139 136 139 132 126 125 126 126 122 119
120 131 109 85 71 66 69 49 79 89 81 95 61 53 44 36 29 17 11 38 60 66 99 118 145 142 144 166 170 159 160 168 190 244 230 203 179 166 163 158 154 156 153 148 144 140 138 132 130 129 130 128 123 117
117 101 68 57 85 55 37 48 67 37 74 66 66 68 46 49 16 9 66 48 75 78 138 149 168 173 179 181 181 182 181 187 193 190 189 184 176 172 170 167 161 162 159 156 151 146 145 146 142 140 140 138 148 332
102 57 35 40 39 69 52 35 47 60 63 50 57 70 36 26 10 40 93 69 231 149 165 174 175 184 189 193 197 195 192 191 182 181 181 178 175 169 166 166 164 162 164 156 151 148 156 165 171 205 252 280 294 301
88 15 22 15 24 38 42 33 11 57 77 42 94 100 52 353 7 346 314 54 231 174 183 180 188 200 211 208 193 182 174 173 174 180 178 173 174 169 166 165 164 166 167 172 178 189 219 242 261 276 280 285 296 297
68 15 35 12 18 40 11 60 34 41 40 82 56 338 325 203 226 248 69 290 201 182 178 181 191 194 197 199 188 177 174 173 169 180 178 173 171 174 175 178 180 193 201 215 231 251 267 272 276 283 292 297 298 299
61 15 28 32 37 57 72 56 45 47 58 49 2 359 359 186 275 80 229 189 181 178 179 178 179 181 189 181 174 169 168 170 172 175 177 177 180 185 192 206 218 233 245 259 265 269 274 282 289 294 297 299 301 300
71 35 52 2 50 40 91 48 36 49 30 352 290 29 147 225 289 238 202 187 169 163 164 163 163 161 160 161 164 162 163 169 175 177 183 193 203 211 220 232 247 260 264 269 278 284 289 292 295 295 296 297 299 298
47 20 37 36 49 46 45 52 341 294 299 329 314 275 266 257 262 217 189 178 169 165 164 162 161 161 164 164 168 175 181 182 185 196 213 227 237 245 252 257 266 271 275 282 287 289 291 294 295 297 301 303 302 300
23 24 76 59 69 15 359 352 348 312 232 247 275 298 302 295 250 191 191 189 185 181 179 179 179 180 182 189 197 207 215 222 228 236 244 251 259 263 262 273 279 280 281 284 290 293 295 297 297 296 297 299 300 301
7 58 81 52 94 10 349 10 61 82 231 281 239 260 292 307 261 218 204 197 197 196 193 194 200 207 212 217 225 230 238 243 245 248 253 258 263 267 271 275 281 289 294 295 294 295 294 293 294 295 296 297 298 299
38 49 89 100 183 257 333 336 266 242 256 258 262 292 296 300 274 223 219 209 208 207 203 211 219 229 235 238 238 241 245 250 253 258 263 266 270 276 284 289 291 292 292 292 294 295 296 297 298 298 298 299 301 303
68 50 61 97 103 258 338 359 5 313 273 277 279 291 272 258 249 240 220 213 210 215 225 230 236 241 241 244 247 252 256 261 266 270 274 277 280 281 284 287 289 291 293 295 296 296 296 296 296 298 301 303 305 306